Wind_Speed
11 12 12 12 13 14 15 16 17 20 28 25 24 21 20 23 25 25 25 24 22 22 22 22 21 23 22 20 19 19 19 18 15 13 13 13 14 16
14 15 16 16 16 17 18 18 19 21 26 30 31 30 29 28 27 27 26 26 25 25 24 23 25 24 24 22 21 20 20 18 17 15 14 12 13 14
16 17 18 19 19 19 19 20 21 22 28 31 31 32 34 34 32 31 28 28 28 26 25 25 26 26 24 24 23 21 21 20 19 18 16 15 14 13
17 18 19 20 20 21 22 22 23 24 26 31 31 31 33 34 35 36 34 32 31 29 26 26 27 28 27 26 25 24 23 22 21 19 18 16 15 16
16 18 19 21 21 22 22 23 24 25 26 29 30 30 33 35 38 40 39 37 35 32 31 29 27 28 29 29 27 26 24 23 22 21 20 18 17 15
17 19 20 21 22 24 24 25 26 27 28 30 32 33 32 33 33 37 43 43 43 39 35 32 32 30 30 28 29 28 27 25 23 23 22 21 19 18
20 21 22 22 22 23 24 25 26 26 27 28 30 30 28 27 26 27 33 35 35 34 36 32 30 28 26 24 25 27 27 26 25 25 25 24 23 22
23 23 23 23 23 23 23 23 23 25 27 28 28 28 25 25 28 24 27 32 30 29 30 37 33 34 32 30 28 27 26 27 27 26 26 26 25 23
25 25 25 25 25 26 26 26 26 25 23 25 26 26 27 25 24 26 26 27 30 32 31 38 33 36 31 32 30 29 25 25 26 25 25 24 23 22
22 22 24 24 24 26 27 27 27 26 26 25 26 27 26 26 25 27 28 29 30 31 27 30 32 36 35 33 27 26 26 26 25 25 24 23 23 22
22 22 24 26 25 20 21 22 27 26 22 22 24 26 26 27 26 26 29 28 31 34 31 31 33 31 32 35 30 29 27 27 27 27 26 25 23 22
24 24 23 23 24 22 21 23 26 27 25 27 28 27 27 28 28 27 27 28 26 28 28 22 30 27 27 31 31 27 23 24 27 26 26 24 23 24
23 24 23 22 23 22 22 23 25 27 28 28 29 31 31 31 29 25 21 22 25 28 31 23 28 29 25 32 36 31 26 23 27 25 25 24 22 22
21 23 23 22 22 23 25 26 26 26 26 28 31 32 31 30 27 25 24 24 24 28 28 25 29 28 32 36 34 36 31 25 25 28 26 21 20 18
21 23 23 23 22 23 24 25 25 26 28 29 29 29 26 24 24 24 24 25 26 26 24 22 23 27 30 36 40 32 29 27 28 23 24 24 23 21
22 23 26 24 24 24 24 23 23 22 23 24 24 24 23 25 25 24 25 25 27 29 26 20 20 22 25 29 31 35 27 20 18 19 21 22 23 20
21 24 25 23 22 22 22 21 20 20 20 20 21 24 25 24 25 25 24 23 22 25 27 21 20 22 21 21 25 24 22 25 18 21 20 18 15 15
22 25 25 22 22 22 23 24 22 20 20 20 22 23 23 22 23 22 22 23 24 24 24 22 22 23 20 16 14 14 15 12 13 17 17 19 18 21
23 22 23 23 23 23 23 21 21 20 21 22 24 24 24 24 23 23 24 23 23 23 22 22 21 20 22 21 18 14 9 6 7 14 17 18 19 19
19 20 20 20 20 22 22 23 25 25 26 27 26 24 22 24 25 26 26 24 23 21 21 20 20 18 20 18 20 19 10 6 7 8 9 11 14 16
21 22 23 25 26 26 27 27 29 29 29 29 27 26 25 25 25 24 25 24 22 23 25 24 20 20 20 21 20 17 13 8 8 7 8 10 12 15
20 21 22 22 22 22 22 23 24 24 24 24 23 23 23 23 23 24 24 20 21 23 25 23 19 13 14 15 19 15 9 6 6 8 11 13 12 11
20 21 21 21 21 21 22 22 23 24 24 24 23 23 22 22 22 22 22 20 21 21 22 20 15 12 12 7 9 8 9 10 11 13 15 14 14 14
Wind_Direction
294 296 297 298 298 298 299 300 300 299 305 302 306 306 306 305 303 305 305 307 306 304 304 305 307 310 310 308 304 302 301 302 301 295 287 280 274 268
291 292 293 294 292 293 294 294 291 289 283 294 298 300 301 299 301 301 301 301 300 300 301 300 301 303 304 302 301 298 295 293 293 294 291 280 269 267
289 290 291 290 290 290 289 288 288 288 286 289 291 295 296 300 299 297 297 297 298 298 298 297 297 297 297 298 297 294 291 289 286 286 285 283 272 262
289 289 290 291 291 292 292 290 289 287 288 291 291 292 291 292 296 298 297 297 296 295 294 291 289 291 292 292 291 290 288 284 282 278 277 276 273 270
296 298 298 297 296 295 293 293 291 289 288 291 294 295 294 292 292 292 294 292 292 291 287 285 285 285 285 286 287 284 282 280 276 274 270 267 266 264
296 298 299 300 301 300 299 298 297 295 294 292 293 297 300 300 296 295 292 289 290 289 288 288 286 283 281 280 279 279 278 276 274 268 265 263 259 258
295 296 297 298 298 298 299 297 297 298 300 302 302 304 304 306 307 306 300 303 299 299 295 292 286 279 273 272 274 275 275 274 270 265 262 260 259 255
301 299 298 297 296 295 295 296 297 298 297 299 301 304 305 302 303 306 302 306 311 310 309 296 294 288 281 272 269 272 277 271 269 264 258 257 255 253
298 298 296 294 295 297 296 295 295 296 291 290 292 297 299 302 301 302 301 303 302 305 305 299 302 297 294 286 281 275 273 275 268 262 257 252 249 247
296 295 295 296 297 300 299 299 302 303 297 292 292 296 295 295 295 296 299 297 295 296 305 297 303 299 297 293 285 275 266 271 272 263 254 249 245 242
297 296 295 297 300 300 297 299 301 305 303 300 296 294 293 292 294 297 295 298 297 292 295 300 304 309 302 296 297 287 270 260 263 264 254 248 243 241
304 301 301 296 294 298 297 295 293 298 303 305 303 298 298 296 294 294 294 293 289 294 297 290 297 311 311 305 302 299 292 264 257 257 250 246 245 245
308 311 313 312 307 302 299 296 296 302 302 298 299 300 302 303 303 302 294 287 287 281 288 284 290 296 298 300 298 300 294 280 259 245 241 243 245 244
309 312 313 313 309 302 298 299 299 298 299 297 296 298 301 302 302 301 298 295 289 286 286 286 281 288 295 296 295 290 293 289 246 247 235 236 238 234
311 314 312 310 309 305 304 303 301 299 298 296 296 297 299 301 303 303 300 297 296 293 287 287 288 290 293 291 293 277 278 287 237 230 235 231 227 225
312 314 311 311 310 308 305 304 303 302 299 298 299 299 299 302 303 306 306 307 303 298 296 295 295 305 294 301 298 266 265 255 217 206 215 215 201 215
310 304 308 310 312 313 312 311 309 308 306 302 298 299 301 301 301 303 304 304 305 304 304 307 304 300 301 294 307 266 269 249 204 199 200 206 208 220
301 300 305 301 303 309 313 310 306 306 309 306 303 302 302 305 304 305 307 303 303 303 302 306 309 313 308 305 320 299 273 249 225 209 218 231 232 237
302 305 300 296 300 303 306 309 308 307 307 306 304 303 300 299 298 299 302 306 301 299 300 306 304 303 305 298 309 315 290 292 261 250 254 255 254 245
299 305 311 310 306 308 307 304 304 303 303 303 305 302 300 302 298 296 297 299 301 303 300 296 303 299 287 295 301 294 299 248 247 250 245 241 242 244
308 307 306 304 303 301 300 300 301 300 301 301 301 298 297 296 293 296 297 286 288 291 300 296 298 302 286 278 278 270 273 256 263 249 241 243 242 246
310 311 312 313 315 313 309 309 310 310 309 308 307 305 302 298 294 293 296 287 280 288 299 303 305 297 300 270 253 265 255 253 262 252 252 253 247 253
318 316 318 318 319 318 314 311 309 310 310 311 309 307 305 300 296 293 292 292 288 285 292 299 289 296 300 307 252 256 263 269 267 270 266 268 260 257
Height
1521 1520 1520 1519 1518 1517 1515 1514 1513 1509 1505 1503 1504 1503 1502 1501 1499 1496 1494 1492 1490 1488 1486 1484 1482 1479 1477 1475 1473 1470 1469 1467 1465 1464 1462 1461 1461 1461
1518 1517 1516 1516 1515 1513 1512 1511 1509 1508 1504 1501 1499 1498 1497 1496 1494 1492 1490 1487 1485 1483 1481 1480 1477 1476 1473 1471 1469 1467 1466 1464 1462 1460 1459 1458 1458 1457
1514 1513 1512 1511 1510 1508 1507 1506 1505 1503 1498 1496 1495 1493 1490 1488 1487 1486 1485 1482 1480 1479 1477 1475 1472 1470 1469 1467 1465 1463 1462 1460 1459 1457 1456 1455 1454 1453
1510 1509 1508 1506 1505 1503 1502 1501 1500 1498 1494 1489 1488 1487 1485 1483 1479 1477 1476 1474 1473 1472 1470 1469 1467 1465 1463 1462 1460 1458 1457 1455 1454 1453 1452 1451 1450 1450
1506 1504 1503 1501 1500 1498 1496 1495 1493 1491 1489 1484 1480 1480 1478 1478 1473 1470 1468 1466 1465 1464 1462 1461 1460 1458 1457 1455 1454 1452 1451 1449 1449 1448 1448 1447 1446 1447
1503 1501 1498 1496 1494 1492 1491 1489 1486 1484 1482 1479 1475 1472 1470 1469 1467 1464 1459 1457 1454 1455 1453 1453 1452 1451 1449 1448 1447 1446 1444 1443 1442 1442 1442 1442 1443 1442
1499 1496 1494 1492 1490 1488 1486 1483 1481 1478 1476 1472 1469 1466 1464 1463 1461 1458 1454 1450 1447 1446 1443 1443 1442 1441 1440 1440 1439 1438 1437 1437 1436 1435 1435 1436 1436 1437
1492 1491 1489 1486 1485 1483 1481 1479 1477 1474 1471 1468 1465 1462 1459 1458 1456 1453 1450 1446 1440 1440 1436 1432 1434 1431 1432 1432 1431 1430 1429 1429 1428 1428 1428 1429 1430 1431
1486 1484 1482 1481 1478 1476 1475 1473 1471 1469 1467 1464 1460 1458 1454 1453 1451 1447 1445 1442 1438 1435 1434 1426 1427 1422 1423 1421 1422 1422 1421 1421 1421 1421 1422 1422 1423 1424
1481 1479 1476 1474 1473 1471 1468 1466 1464 1462 1460 1457 1454 1452 1450 1448 1446 1443 1440 1437 1433 1430 1429 1422 1420 1416 1415 1413 1411 1411 1412 1413 1414 1415 1415 1416 1417 1419
1475 1473 1471 1468 1467 1465 1462 1459 1457 1455 1454 1451 1448 1446 1444 1442 1440 1436 1433 1431 1425 1422 1421 1418 1414 1410 1407 1403 1403 1403 1403 1404 1406 1407 1408 1410 1411 1413
1469 1467 1465 1463 1460 1459 1457 1455 1451 1449 1447 1444 1441 1439 1437 1435 1434 1432 1428 1424 1421 1416 1414 1413 1410 1407 1399 1397 1395 1395 1395 1395 1397 1398 1401 1403 1405 1407
1463 1460 1459 1456 1454 1453 1452 1449 1446 1444 1441 1438 1435 1432 1430 1427 1424 1422 1421 1418 1415 1411 1409 1408 1403 1401 1400 1393 1388 1387 1387 1388 1389 1390 1394 1397 1399 1400
1458 1456 1454 1452 1449 1447 1445 1443 1441 1438 1434 1431 1428 1425 1422 1419 1417 1415 1413 1411 1408 1405 1403 1402 1398 1397 1393 1388 1384 1381 1381 1381 1382 1383 1385 1390 1393 1394
1454 1451 1449 1446 1444 1441 1439 1437 1434 1431 1428 1425 1421 1418 1416 1413 1411 1409 1407 1403 1400 1398 1397 1395 1393 1390 1388 1383 1378 1375 1375 1374 1375 1377 1380 1383 1386 1390
1449 1446 1443 1441 1438 1436 1433 1431 1427 1425 1421 1418 1415 1412 1410 1408 1405 1404 1400 1397 1393 1390 1389 1388 1387 1385 1381 1378 1372 1369 1370 1370 1370 1373 1377 1379 1381 1386
1445 1441 1438 1436 1433 1430 1427 1425 1422 1420 1417 1414 1411 1408 1405 1403 1400 1398 1395 1391 1388 1384 1381 1382 1381 1378 1375 1371 1367 1362 1363 1365 1368 1369 1373 1377 1379 1383
1439 1436 1434 1431 1428 1425 1422 1419 1417 1415 1412 1409 1406 1403 1400 1398 1395 1392 1390 1387 1384 1381 1378 1376 1374 1371 1368 1366 1365 1362 1361 1361 1362 1365 1369 1372 1375 1378
1434 1431 1428 1426 1423 1420 1417 1414 1411 1410 1407 1404 1401 1398 1395 1393 1390 1388 1385 1382 1378 1376 1373 1372 1370 1369 1366 1363 1363 1361 1361 1361 1362 1363 1365 1368 1370 1374
1429 1426 1423 1420 1418 1415 1412 1409 1406 1404 1401 1398 1395 1393 1390 1387 1384 1382 1380 1378 1375 1372 1369 1367 1366 1364 1363 1361 1360 1359 1359 1359 1360 1360 1362 1363 1365 1367
1423 1420 1418 1415 1412 1409 1406 1403 1400 1397 1393 1390 1388 1385 1383 1381 1378 1376 1373 1372 1370 1367 1364 1361 1360 1359 1356 1356 1355 1355 1356 1357 1358 1358 1359 1360 1362 1363
1418 1415 1412 1409 1406 1402 1400 1397 1393 1390 1387 1384 1381 1379 1376 1374 1371 1369 1367 1365 1364 1362 1359 1357 1355 1353 1351 1349 1350 1352 1353 1354 1355 1355 1356 1357 1359 1358
1413 1410 1407 1403 1400 1397 1394 1391 1388 1385 1382 1379 1376 1373 1370 1367 1365 1363 1361 1359 1358 1356 1355 1353 1352 1351 1350 1348 1348 1349 1350 1351 1352 1352 1353 1354 1354 1355